When you browse on this site, cookies collect data to enhance your experience and personalize the content and advertising you see.
Visit our Privacy Policy to learn more. By continuing to use the site, you agree to this use of cookies and data.
  • In Portugal
  • List of Countries
  • For 7 days
  • Water Temperature
  • Satellite Maps
  • Weather Map
  • Weather Widgets
  • user-avatar
    Login

    Hourly Weather Czarnoszki

    Today, 17 February, Sunday

    Time Temperature Precipitation Wind Pressure Humidity
    00:00 +3°C° 0 mm 3 mps 750 mmHg 85%
    01:00 +4°C° 0 mm 3 mps 750 mmHg 84%
    02:00 +3°C° 0 mm 3 mps 750 mmHg 86%
    03:00 +3°C° 0 mm 3 mps 750 mmHg 89%
    04:00 +3°C° 0 mm 3 mps 750 mmHg 91%
    05:00 +3°C° 0 mm 3 mps 750 mmHg 92%
    06:00 +2°C° 0 mm 3 mps 750 mmHg 94%
    07:00 +2°C° 0 mm 3 mps 750 mmHg 95%
    08:00 +3°C° 0 mm 3 mps 750 mmHg 94%
    09:00 +3°C° 0 mm 3 mps 751 mmHg 94%
    10:00 +4°C° 0 mm 4 mps 751 mmHg 93%
    11:00 +4°C° 0 mm 3 mps 751 mmHg 91%
    12:00 +4°C° 0 mm 3 mps 751 mmHg 89%
    13:00 +4°C° 0 mm 3 mps 751 mmHg 88%
    14:00 +4°C° 0 mm 3 mps 751 mmHg 87%
    15:00 +6°C° 0 mm 2 mps 751 mmHg 87%
    16:00 +6°C° 0 mm 2 mps 751 mmHg 87%
    17:00 +6°C° 0 mm 1 mps 751 mmHg 90%
    18:00 +5°C° 0 mm 1 mps 751 mmHg 93%
    19:00 +4°C° 0 mm 1 mps 751 mmHg 95%
    20:00 +3°C° 0 mm 0 mps 751 mmHg 96%
    21:00 +3°C° 0 mm 0 mps 751 mmHg 96%
    22:00 +2°C° 0 mm 0 mps 751 mmHg 96%
    23:00 +2°C° 0 mm 0 mps 751 mmHg 96%

    Tomorrow, 18 February, Monday

    Time Temperature Precipitation Wind Pressure Humidity
    00:00 +3°C° 0 mm 1 mps 751 mmHg 96%
    01:00 +3°C° 0 mm 1 mps 751 mmHg 96%
    02:00 +3°C° 0 mm 1 mps 751 mmHg 97%
    03:00 +3°C° 0 mm 1 mps 750 mmHg 97%
    04:00 +2°C° 0 mm 2 mps 750 mmHg 98%
    05:00 +2°C° 0 mm 2 mps 750 mmHg 97%
    06:00 +2°C° 0 mm 2 mps 750 mmHg 97%
    07:00 +2°C° 0 mm 2 mps 750 mmHg 97%
    08:00 +2°C° 0 mm 3 mps 750 mmHg 93%
    09:00 +3°C° 0 mm 3 mps 750 mmHg 89%
    10:00 +4°C° 0 mm 3 mps 750 mmHg 85%
    11:00 +5°C° 0 mm 3 mps 750 mmHg 79%
    12:00 +7°C° 0 mm 3 mps 749 mmHg 74%
    13:00 +8°C° 0 mm 3 mps 749 mmHg 68%
    14:00 +8°C° 0 mm 3 mps 749 mmHg 68%
    15:00 +8°C° 0 mm 3 mps 749 mmHg 68%
    16:00 +8°C° 0 mm 3 mps 748 mmHg 68%
    17:00 +7°C° 0 mm 3 mps 748 mmHg 72%
    18:00 +5°C° 0 mm 3 mps 748 mmHg 76%
    19:00 +3°C° 0 mm 3 mps 748 mmHg 79%
    20:00 +3°C° 0 mm 3 mps 747 mmHg 80%
    21:00 +3°C° 0 mm 3 mps 747 mmHg 80%
    22:00 +3°C° 0 mm 2 mps 747 mmHg 80%
    23:00 +3°C° 0 mm 2 mps 747 mmHg 81%

    Day after tomorrow, 19 February, Tuesday

    Time Temperature Precipitation Wind Pressure Humidity
    00:00 +3°C° 0 mm 2 mps 746 mmHg 81%
    01:00 +2°C° 0 mm 2 mps 746 mmHg 81%
    02:00 +1°C° 0 mm 3 mps 746 mmHg 83%
    03:00 +1°C° 0 mm 3 mps 745 mmHg 84%
    04:00 +1°C° 0 mm 3 mps 745 mmHg 85%
    05:00 +1°C° 0 mm 3 mps 745 mmHg 87%
    06:00 0°C° 0 mm 3 mps 744 mmHg 89%
    07:00 0°C° 0 mm 3 mps 744 mmHg 91%
    08:00 +1°C° 0 mm 3 mps 744 mmHg 88%
    09:00 +1°C° 0 mm 4 mps 744 mmHg 85%
    10:00 +4°C° 0 mm 4 mps 744 mmHg 82%
    11:00 +5°C° 0 mm 4 mps 744 mmHg 77%
    12:00 +6°C° 0 mm 5 mps 744 mmHg 73%
    13:00 +7°C° 0 mm 5 mps 744 mmHg 68%
    14:00 +7°C° 0.2 mm 5 mps 744 mmHg 74%
    15:00 +6°C° 0.2 mm 5 mps 744 mmHg 79%
    16:00 +5°C° 0.2 mm 4 mps 744 mmHg 85%
    17:00 +5°C° 0.1 mm 4 mps 744 mmHg 84%
    18:00 +5°C° 0.1 mm 4 mps 744 mmHg 83%
    19:00 +4°C° 0.1 mm 4 mps 744 mmHg 82%
    20:00 +3°C° 0 mm 5 mps 745 mmHg 83%
    21:00 +3°C° 0 mm 5 mps 745 mmHg 83%
    22:00 +3°C° 0 mm 5 mps 745 mmHg 83%
    23:00 +3°C° 0 mm 5 mps 745 mmHg 84%

    20 February, Wednesday

    Time Temperature Precipitation Wind Pressure Humidity
    00:00 +3°C° 0 mm 5 mps 745 mmHg 85%
    01:00 +2°C° 0 mm 5 mps 745 mmHg 86%
    02:00 +2°C° 0 mm 5 mps 745 mmHg 85%
    03:00 +2°C° 0 mm 5 mps 745 mmHg 84%
    04:00 +2°C° 0 mm 5 mps 745 mmHg 83%
    05:00 +2°C° 0 mm 5 mps 746 mmHg 83%
    06:00 +2°C° 0 mm 5 mps 746 mmHg 82%
    07:00 +1°C° 0 mm 5 mps 746 mmHg 82%
    08:00 +1°C° 0.1 mm 5 mps 747 mmHg 82%
    09:00 +1°C° 0.1 mm 5 mps 747 mmHg 82%
    10:00 +2°C° 0.1 mm 5 mps 747 mmHg 82%
    11:00 +2°C° 0.1 mm 5 mps 748 mmHg 81%
    12:00 +2°C° 0.1 mm 5 mps 748 mmHg 80%
    13:00 +2°C° 0.1 mm 5 mps 748 mmHg 79%
    14:00 +2°C° 0 mm 5 mps 749 mmHg 78%
    15:00 +3°C° 0 mm 5 mps 749 mmHg 77%
    16:00 +4°C° 0 mm 4 mps 749 mmHg 77%
    17:00 +3°C° 0 mm 4 mps 749 mmHg 79%
    18:00 +3°C° 0 mm 3 mps 749 mmHg 82%
    19:00 +3°C° 0 mm 3 mps 750 mmHg 85%
    20:00 +3°C° 0 mm 3 mps 750 mmHg 86%
    21:00 +3°C° 0 mm 3 mps 750 mmHg 88%
    22:00 +4°C° 0 mm 2 mps 750 mmHg 89%
    23:00 +4°C° 0.1 mm 2 mps 750 mmHg 90%

    21 February, Thursday

    Time Temperature Precipitation Wind Pressure Humidity
    00:00 +4°C° 0.1 mm 2 mps 751 mmHg 91%
    01:00 +4°C° 0.1 mm 2 mps 751 mmHg 92%
    02:00 +4°C° 0 mm 2 mps 751 mmHg 92%
    03:00 +3°C° 0 mm 3 mps 750 mmHg 93%
    04:00 +3°C° 0 mm 3 mps 750 mmHg 93%
    05:00 +3°C° 0.3 mm 3 mps 750 mmHg 93%
    06:00 +3°C° 0.3 mm 3 mps 750 mmHg 94%
    07:00 +3°C° 0.3 mm 3 mps 750 mmHg 94%
    08:00 +3°C° 0.5 mm 3 mps 750 mmHg 92%
    09:00 +3°C° 0.5 mm 3 mps 750 mmHg 91%
    10:00 +3°C° 0.5 mm 3 mps 750 mmHg 89%
    11:00 +4°C° 0 mm 4 mps 750 mmHg 84%
    12:00 +5°C° 0 mm 4 mps 750 mmHg 79%
    13:00 +6°C° 0 mm 4 mps 750 mmHg 74%
    14:00 +6°C° 0.1 mm 4 mps 750 mmHg 78%
    15:00 +5°C° 0.1 mm 4 mps 749 mmHg 81%
    16:00 +5°C° 0.1 mm 4 mps 749 mmHg 85%
    17:00 +4°C° 0 mm 3 mps 749 mmHg 88%
    18:00 +4°C° 0 mm 3 mps 749 mmHg 91%
    19:00 +4°C° 0 mm 3 mps 749 mmHg 94%
    20:00 +4°C° 0 mm 3 mps 749 mmHg 94%
    21:00 +4°C° 0 mm 3 mps 749 mmHg 95%
    22:00 +4°C° 0 mm 3 mps 749 mmHg 95%
    23:00 +4°C° 0.1 mm 3 mps 749 mmHg 94%

    22 February, Friday

    Time Temperature Precipitation Wind Pressure Humidity
    00:00 +4°C° 0.1 mm 4 mps 749 mmHg 93%
    01:00 +5°C° 0.1 mm 4 mps 749 mmHg 92%
    02:00 +4°C° 0.1 mm 4 mps 749 mmHg 90%
    03:00 +3°C° 0.1 mm 5 mps 749 mmHg 88%
    04:00 +3°C° 0.1 mm 5 mps 748 mmHg 86%
    05:00 +3°C° 0 mm 5 mps 749 mmHg 87%
    06:00 +3°C° 0 mm 5 mps 749 mmHg 89%
    07:00 +3°C° 0 mm 5 mps 749 mmHg 90%
    08:00 +2°C° 0 mm 5 mps 750 mmHg 87%
    09:00 +2°C° 0 mm 5 mps 751 mmHg 84%
    10:00 +2°C° 0 mm 5 mps 752 mmHg 81%
    11:00 +3°C° 0 mm 5 mps 753 mmHg 79%
    12:00 +3°C° 0 mm 5 mps 754 mmHg 77%
    13:00 +5°C° 0 mm 5 mps 754 mmHg 74%
    14:00 +3°C° 0 mm 5 mps 755 mmHg 75%
    15:00 +2°C° 0 mm 5 mps 756 mmHg 76%
    16:00 +2°C° 0 mm 5 mps 757 mmHg 76%
    17:00 +1°C° 0 mm 5 mps 758 mmHg 77%
    18:00 0°C° 0 mm 4 mps 759 mmHg 79%
    19:00 0°C° 0 mm 4 mps 759 mmHg 80%
    20:00 -1°C° 0 mm 4 mps 760 mmHg 79%
    21:00 -1°C° 0 mm 4 mps 761 mmHg 78%
    22:00 0°C° 0 mm 3 mps 762 mmHg 78%
    23:00 -1°C° 0 mm 3 mps 762 mmHg 79%
    Show more